Location: Beutels
(47.8767°N, 9.8584°E)
Time: 06:04:33
(UTC+00:00)

SL-14 R/B - Pass Details

Date: 19 May 2025
Orbit: 500 x 530 km, 82.4° (Epoch: 22 June)

Event Time Altitude Azimuth Distance (km) Brightness Sun altitude
Exits shadow 23:53:56 63° 112° (ESE) 582 3.3 -21.6°
Maximum altitude 23:54:05 64° 96° (E) 579 3.3 -21.6°
Drops below altitude 10° 23:57:56 10° 15° (NNE) 1,770 7.1 -21.5°
Sets 00:00:06 0° 13° (NNE) 2,668 8.4 -21.5°
